[[{"header":{"parameterUnit":"m.s-1","parameterCategory":2,"la1":30.2991,"la2":30.254,"lo1":-89.0895,"lo2":-89.0444,"dy":0.0017,"dx":0.0017,"nx":28,"ny":28,"refTime":"2024-08-05T09:00:00:Z","depth":"0","parameterNumber":2,"parameterNumberName":"U-component_of_CURRENTS"},"data":[0,0,0,0,0,0,0,0,0,0,0,0,0,0,0,0,0,0,0,0,0,0,0,0,0,0,0,0,0,0,0,0,0,0,0,0,0,0,0,0,0,0,0,0,0,0,0,0,0,0,0,0,0,0,0,0,0,0,0.325,0.3249,0,0.3138,0.3136,0.3134,0.3017,0.3017,0.3016,0.3015,0.2786,0.278,0.2775,0,0,0,0,0,0,0,0,0,0,0,0,0,0.3453,0.3448,0.325,0.3249,0.3249,0.3139,0.3136,0.3134,0.3018,0.3017,0.3016,0.3015,0.2787,0.2781,0.2774,0,0,0,0,0,0,0,0,0,0,0,0,0,0.3346,0.3446,0.325,0.3185,0.3179,0.3139,0.3136,0.3133,0.3018,0.3017,0.3016,0.3015,0.279,0.2782,0.2773,0.2744,0,0,0.2748,0.2745,0,0,0,0,0,0,0,0,0.3352,0.3337,0.3195,0.3189,0.3183,0.3099,0.3124,0.3001,0.3018,0.3068,0.3015,0.3014,0.2887,0.2871,0.284,0.2734,0.2724,0.2748,0.2743,0.2739,0.2737,0,0,0,0,0,0,0,0.3359,0.3342,0.3195,0.3195,0.3187,0.3194,0.3175,0.31,0.2975,0.3064,0.3058,0.3061,0.2881,0.2848,0.2833,0.272,0.2748,0.2741,0.2736,0.2732,0.2723,0.2727,0,0,0,0,0,0,0.3388,0.3348,0.3199,0.3193,0.3277,0.3191,0.317,0.3119,0.2978,0.296,0.3063,0.3057,0.2862,0.2843,0.2825,0.2857,0.2739,0.2732,0.2727,0.2718,0.2724,0.2729,0,0,0,0,0,0,0.3392,0.3374,0.3204,0.328,0.326,0.3189,0.3133,0.3118,0.3097,0.298,0.2957,0.306,0.2861,0.2836,0.2814,0.2844,0.2728,0.2721,0.2713,0.272,0.2726,0.2873,0,0,0,0,0,0,0.3397,0.3374,0.3361,0.328,0.3257,0.3209,0.3134,0.3117,0.3105,0.3096,0.2971,0.2947,0.2858,0.2827,0.2806,0.2831,0.2714,0.2707,0.2716,0.2724,0.2862,0.2884,0.2903,0,0,0,0,0,0.3404,0.338,0.3359,0.3343,0.3233,0.3212,0.32,0.3141,0.3107,0.3114,0.3054,0.2952,0.2868,0.2824,0.2798,0.2821,0.2703,0.2713,0.2724,0.2853,0.288,0.2902,0,0,0,0,0,0,0.3461,0.3365,0.3339,0.3286,0.3273,0.3196,0.3191,0.3163,0.3118,0.3108,0.2991,0.2966,0.2963,0.2895,0.285,0.2858,0.2776,0.2782,0.2884,0.2907,0.2927,0.2939,0.2707,0,0,0,0,0,0.3472,0.344,0.3366,0.335,0.3323,0.3266,0.3254,0.3226,0.3177,0.3154,0.3073,0.3014,0.2986,0.295,0.2905,0.289,0.2873,0.2903,0.2924,0.294,0.2942,0.2996,0.302,0.2763,0.2763,0.2763,0,0,0.3511,0.3451,0.3441,0.3367,0.3329,0.3309,0.3252,0.3247,0.3245,0.3137,0.3103,0.3074,0.3006,0.3004,0.2996,0.2944,0.3011,0.2954,0.2968,0.296,0.3009,0.3034,0.3056,0.277,0.2769,0.2768,0,0,0.3553,0.3492,0.3464,0.3457,0.3423,0.3377,0.3386,0.3321,0.3295,0.3286,0.3231,0.3243,0.3149,0.3132,0.3106,0.3219,0.3127,0.3205,0.3287,0.3341,0.3361,0.3378,0.3404,0.3422,0.3202,0.3202,0.3202,0,0.3591,0.353,0.3474,0.3456,0.3459,0.3409,0.3406,0.3379,0.3336,0.3328,0.3298,0.3269,0.3213,0.3239,0.3287,0.3257,0.3265,0.3186,0.3363,0.338,0.3396,0.3417,0.3436,0.321,0.3209,0.3208,0.3208,0,0.3607,0.3578,0.357,0.3512,0.3523,0.3523,0.3485,0.3473,0.3439,0.3422,0.3451,0.3422,0.3402,0.3411,0.3367,0.3462,0.3426,0.3389,0.329,0.343,0.3445,0.3461,0.3222,0.3219,0.3217,0.3215,0,0,0.3576,0.3571,0.3559,0.3564,0.3551,0.3549,0.3554,0.3529,0.3526,0.3531,0.3552,0.3567,0.3571,0.3552,0.3533,0.3586,0.3712,0.354,0.3539,0.3544,0.3822,0.3661,0.3663,0.3705,0.3709,0.3712,0.3792,0,0.3575,0.357,0.3569,0.3593,0.3578,0.3577,0.3589,0.3601,0.3581,0.359,0.3619,0.3633,0.3617,0.3628,0.3692,0.3703,0.3761,0.3692,0.3702,0.3702,0.3525,0.3679,0.3442,0.3481,0.3807,0.381,0.3812,0,0.3538,0.354,0.3564,0.3608,0.3598,0.3622,0.3625,0.3642,0.3664,0.3659,0.371,0.3716,0.3807,0.3772,0.3885,0.3842,0.3852,0.3864,0.3866,0.3669,0.3572,0.3395,0.3498,0.3414,0.3836,0.3834,0.3833,0,0.3513,0.352,0.3544,0.3567,0.3608,0.3621,0.3636,0.3662,0.3675,0.3715,0.3732,0.3827,0.3867,0.3935,0.3949,0.3933,0.4055,0.4022,0.3893,0.388,0.3653,0.3614,0.3649,0.4114,0.4114,0.4114,0.4113,0,0.349,0.3498,0.353,0.3555,0.357,0.3627,0.3651,0.3657,0.3713,0.3749,0.3782,0.3825,0.3914,0.3971,0.3996,0.3988,0.4092,0.3934,0.3904,0.3699,0.3664,0.3554,0.352,0.4117,0.4116,0.4115,0.4115,0,0.3471,0.3489,0.3518,0.3563,0.3564,0.3591,0.365,0.3673,0.3713,0.3764,0.3788,0.3858,0.3913,0.3962,0.4053,0.4012,0.3898,0.3995,0.3729,0.3666,0.3433,0.3415,0.327,0.3194,0.3884,0.3881,0.3878,0,0.3457,0.3476,0.3523,0.3526,0.3542,0.3575,0.3597,0.3656,0.3694,0.3772,0.3807,0.3864,0.3886,0.3932,0.3851,0.384,0.3771,0.3608,0.353,0.341,0.3371,0.3261,0.3202,0.3308,0.3301,0.3295,0.329,0,0.3458,0.3488,0.3531,0.3515,0.353,0.3551,0.3595,0.3625,0.3704,0.3717,0.3757,0.3785,0.377,0.3627,0.3565,0.353,0.339,0.3482,0.3444,0.2997,0.2794,0.2706,0.3264,0.3237,0.3243,0.3247,0.3249,0.3252,0.3465,0.3494,0.3534,0.3509,0.3499,0.35,0.3488,0.3537,0.3555,0.352,0.3654,0.3559,0.3429,0.3286,0.3239,0.2936,0.3021,0.2816,0.2831,0.2754,0.2584,0.3007,0.2882,0.2885,0.2888,0.289,0.2892,0,0.3464,0.3501,0.3504,0.3457,0.3376,0.3411,0.3443,0.339,0.3336,0.3332,0.33,0.3078,0.2896,0.2768,0.2458,0.2317,0.2238,0.2251,0.2081,0.2084,0.2532,0.2409,0.2068,0.2068,0.2068,0.2068,0.2068,0.2069,0.3482,0.3502,0.3495,0.333,0.3262,0.3138,0.3134,0.3067,0.3028,0.2792,0.2602,0.2554,0.2433,0.2161,0.1922,0.1873,0.1786,0.1608,0.1743,0.2087,0.2143,0.2195,0.2076,0.167,0.167,0.1158,0.1154,0.1151]},{"header":{"parameterUnit":"m.s-1","parameterCategory":2,"la1":30.2991,"la2":30.254,"lo1":-89.0895,"lo2":-89.0444,"dy":0.0017,"dx":0.0017,"nx":28,"ny":28,"refTime":"2024-08-05T09:00:00:Z","depth":"0","parameterNumber":3,"parameterNumberName":"V-component_of_CURRENTS"},"data":[0,0,0,0,0,0,0,0,0,0,0,0,0,0,0,0,0,0,0,0,0,0,0,0,0,0,0,0,0,0,0,0,0,0,0,0,0,0,0,0,0,0,0,0,0,0,0,0,0,0,0,0,0,0,0,0,0,0,-0.0096,-0.0094,0,0.0002,0.0003,0.0004,0.004,0.0039,0.0039,0.0039,0.0118,0.012,0.0123,0,0,0,0,0,0,0,0,0,0,0,0,0,-0.026,-0.0258,-0.0096,-0.0094,-0.0093,0.0002,0.0004,0.0005,0.004,0.0039,0.0039,0.0039,0.0117,0.012,0.0123,0,0,0,0,0,0,0,0,0,0,0,0,0,-0.018,-0.0257,-0.0096,-0.0063,-0.0059,0.0002,0.0004,0.0005,0.004,0.0039,0.0039,0.0039,0.0117,0.012,0.0123,0.0151,0,0,0.0134,0.0135,0,0,0,0,0,0,0,0,-0.0184,-0.0174,-0.0069,-0.0065,-0.006,0.001,-0.0025,0.0053,0.004,0.0001,0.0039,0.0039,0.0081,0.0088,0.0105,0.0155,0.0158,0.0134,0.0136,0.0138,0.0139,0,0,0,0,0,0,0,-0.019,-0.0178,-0.0058,-0.0068,-0.0062,-0.0056,-0.0045,-0.001,0.004,0.0004,0.0007,0.0021,0.0083,0.0102,0.0107,0.0159,0.0134,0.0137,0.0139,0.0141,0.023,0.023,0,0,0,0,0,0,-0.0198,-0.0183,-0.0061,-0.0055,-0.0123,-0.0052,-0.004,-0.0014,0.004,0.0049,0.0021,0.0022,0.0096,0.0103,0.011,0.0158,0.0138,0.0141,0.0143,0.0229,0.023,0.023,0,0,0,0,0,0,-0.0201,-0.0187,-0.0065,-0.0117,-0.0101,-0.0049,-0.002,-0.0012,0.0007,0.0053,0.0061,0.0031,0.0096,0.0105,0.0141,0.0161,0.0143,0.0146,0.0229,0.0229,0.023,0.0247,0,0,0,0,0,0,-0.0206,-0.0189,-0.0181,-0.0117,-0.0098,-0.003,-0.0019,-0.0009,0.0016,0.0019,0.0065,0.0072,0.0096,0.0136,0.0145,0.0166,0.0148,0.0229,0.0229,0.023,0.0246,0.0248,0.025,0,0,0,0,0,-0.0212,-0.0192,-0.018,-0.0166,-0.0085,-0.0029,-0.0019,0.0015,0.0017,0.0028,0.0058,0.007,0.0145,0.014,0.015,0.0172,0.0228,0.0229,0.023,0.0246,0.0248,0.025,0,0,0,0,0,0,-0.0255,-0.0184,-0.0171,-0.0129,-0.0086,-0.0023,-0.0006,0.0013,0.0046,0.0047,0.0081,0.0091,0.0131,0.0143,0.0136,0.0196,0.0186,0.0189,0.0195,0.0198,0.0199,0.0195,0.0151,0,0,0,0,0,-0.0262,-0.0235,-0.0166,-0.014,-0.0113,-0.0063,-0.004,-0.0015,0.0027,0.0041,0.0076,0.0107,0.0142,0.0162,0.0193,0.0229,0.0248,0.0246,0.0248,0.0249,0.0251,0.0305,0.0313,0.0232,0.0232,0.0232,0,0,-0.0276,-0.0232,-0.0219,-0.0149,-0.0111,-0.0068,-0.005,-0.0009,0.0024,0.0045,0.0094,0.0118,0.0152,0.0195,0.0213,0.0208,0.0279,0.025,0.0251,0.0252,0.0307,0.0315,0.0322,0.0232,0.0232,0.0232,0,0,-0.0274,-0.0244,-0.0212,-0.0178,-0.0118,-0.008,-0.007,-0.0003,0.0026,0.0074,0.0096,0.0128,0.0185,0.0214,0.0235,0.0263,0.0287,0.027,0.0281,0.0334,0.0342,0.0349,0.0373,0.0382,0.0271,0.0271,0.0271,0,-0.0289,-0.0239,-0.0198,-0.0159,-0.0133,-0.0085,-0.0048,-0.0006,0.0059,0.009,0.0089,0.0173,0.0197,0.0252,0.0259,0.027,0.0295,0.0273,0.0338,0.0346,0.0352,0.0376,0.0385,0.0272,0.0272,0.0272,0.0271,0,-0.0255,-0.0225,-0.0204,-0.0139,-0.0109,-0.0072,-0.0009,0.0033,0.0069,0.0109,0.0171,0.0203,0.0252,0.0262,0.0272,0.0329,0.0329,0.0337,0.0336,0.0362,0.0384,0.0394,0.0273,0.0273,0.0272,0.0272,0,0,-0.0245,-0.0189,-0.0179,-0.0156,-0.0098,-0.0058,-0.0004,0.0073,0.0125,0.0168,0.0232,0.0273,0.0286,0.0308,0.0323,0.036,0.0421,0.0366,0.0369,0.0394,0.0527,0.0473,0.0479,0.0449,0.0451,0.0453,0.0519,0,-0.0222,-0.0161,-0.0139,-0.0089,-0.0051,-0.001,0.0037,0.0099,0.0162,0.0236,0.027,0.0331,0.0306,0.0336,0.0366,0.0432,0.0449,0.0401,0.0493,0.0495,0.045,0.049,0.0487,0.0542,0.0529,0.0531,0.0532,0,-0.0184,-0.0147,-0.0101,-0.0055,-0.0032,-0.0001,0.0091,0.0138,0.0236,0.0284,0.0337,0.0376,0.0441,0.041,0.0506,0.0482,0.0492,0.0519,0.0523,0.0475,0.0461,0.0516,0.0561,0.0503,0.0547,0.0546,0.0545,0,-0.0185,-0.0121,-0.0087,-0.0073,-0.0009,0.0026,0.0066,0.0154,0.022,0.0319,0.0391,0.0448,0.0519,0.0545,0.0592,0.0566,0.0693,0.0668,0.0612,0.0608,0.0623,0.0616,0.0627,0.0702,0.0702,0.0702,0.0702,0,-0.017,-0.0139,-0.0081,-0.0063,0.0005,0.0027,0.0112,0.0171,0.0261,0.0368,0.0409,0.0523,0.0563,0.0643,0.0635,0.0669,0.0728,0.0621,0.0631,0.0625,0.0618,0.0579,0.0535,0.0705,0.0704,0.0704,0.0703,0,-0.018,-0.0149,-0.0103,-0.0035,0.0002,0.0043,0.0147,0.0229,0.0293,0.0441,0.048,0.0616,0.0736,0.0745,0.0821,0.0747,0.0731,0.0743,0.0713,0.0715,0.0569,0.0525,0.0548,0.0523,0.0693,0.0692,0.0691,0,-0.0178,-0.0158,-0.008,-0.0016,0.0022,0.01,0.0185,0.0248,0.0345,0.0525,0.0618,0.0754,0.0906,0.0963,0.0875,0.0833,0.0759,0.073,0.0656,0.0564,0.0526,0.0504,0.048,0.0687,0.0687,0.0686,0.0686,0,-0.0162,-0.0146,-0.0098,0.0029,0.0123,0.0229,0.0343,0.0414,0.0524,0.0662,0.0876,0.1002,0.1051,0.1054,0.0931,0.0866,0.0677,0.0712,0.0659,0.0548,0.0491,0.047,0.0615,0.0681,0.0682,0.0682,0.0682,0.0682,-0.0139,-0.0104,-0.0022,0.0099,0.0226,0.0378,0.0464,0.0602,0.0763,0.0982,0.1064,0.1278,0.1183,0.1053,0.0927,0.0651,0.0663,0.0558,0.0523,0.0517,0.0459,0.0559,0.0601,0.0601,0.0601,0.0601,0.0601,0,-0.0079,-0.0029,0.0075,0.0229,0.039,0.0433,0.0609,0.0711,0.0922,0.1133,0.1319,0.1403,0.1274,0.1069,0.071,0.0511,0.0445,0.0409,0.0399,0.0389,0.053,0.0493,0.0464,0.0464,0.0464,0.0464,0.0464,0.0464,-0.0037,0.0059,0.0106,0.0364,0.0486,0.0674,0.0768,0.0924,0.1083,0.1355,0.1498,0.159,0.1447,0.0866,0.049,0.0392,0.0289,0.0244,0.0204,0.0303,0.0315,0.0326,0.0282,0.021,0.0209,0.0096,0.0095,0.0094]}],[{"header":{"parameterUnit":"m.s-1","parameterCategory":2,"la1":30.2991,"la2":30.254,"lo1":-89.0895,"lo2":-89.0444,"dy":0.0017,"dx":0.0017,"nx":28,"ny":28,"refTime":"2024-08-05T09:00:00:Z","depth":"2","parameterNumber":2,"parameterNumberName":"U-component_of_CURRENTS"},"data":[0,0,0,0,0,0,0,0,0,0,0,0,0,0,0,0,0,0,0,0,0,0,0,0,0,0,0,0,0,0,0,0,0,0,0,0,0,0,0,0,0,0,0,0,0,0,0,0,0,0,0,0,0,0,0,0,0,0,0.1944,0.1945,0,0.2003,0.2004,0.2004,0.201,0.201,0.2009,0.2009,0.1972,0.1972,0.1971,0,0,0,0,0,0,0,0,0,0,0,0,0,0.1862,0.1863,0.1944,0.1945,0.1946,0.2003,0.2004,0.2004,0.201,0.201,0.2009,0.2009,0.1972,0.1972,0.1971,0,0,0,0,0,0,0,0,0,0,0,0,0,0.1904,0.1864,0.1944,0.1958,0.196,0.2003,0.2004,0.2004,0.201,0.201,0.2009,0.2009,0.1973,0.1972,0.1971,0.1974,0,0,0.1968,0.1967,0,0,0,0,0,0,0,0,0.1902,0.1907,0.1955,0.1957,0.1959,0.2001,0.1962,0.1991,0.201,0.1988,0.2009,0.2008,0.1975,0.1974,0.1983,0.1973,0.1971,0.1968,0.1967,0.1966,0.1966,0,0,0,0,0,0,0,0.1899,0.1904,0.1964,0.1956,0.1959,0.1971,0.1976,0.1967,0.1979,0.199,0.1991,0.2003,0.1975,0.1984,0.1982,0.1971,0.1968,0.1967,0.1966,0.1966,0.2029,0.2031,0,0,0,0,0,0,0.1897,0.1902,0.1962,0.1966,0.1932,0.1973,0.1978,0.1986,0.1982,0.1982,0.2003,0.2003,0.1986,0.1984,0.1981,0.2025,0.1967,0.1966,0.1965,0.2026,0.2029,0.2032,0,0,0,0,0,0,0.1895,0.1902,0.196,0.1938,0.1946,0.1975,0.1984,0.1987,0.1996,0.1994,0.1991,0.2008,0.1986,0.1982,0.198,0.2022,0.1965,0.1964,0.2024,0.2027,0.203,0.2087,0,0,0,0,0,0,0.1892,0.19,0.1927,0.1938,0.1948,0.1985,0.1985,0.1989,0.2006,0.2006,0.1997,0.1993,0.1985,0.1981,0.1979,0.2019,0.1963,0.2021,0.2025,0.2029,0.2082,0.2092,0.21,0,0,0,0,0,0.1889,0.1923,0.1928,0.1937,0.1976,0.1986,0.1992,0.2008,0.2006,0.2013,0.201,0.1994,0.2008,0.1981,0.1978,0.2019,0.2019,0.2024,0.2029,0.2078,0.209,0.21,0,0,0,0,0,0,0.1902,0.1928,0.1933,0.1974,0.1979,0.1988,0.2017,0.2009,0.2015,0.2025,0.2001,0.1998,0.2025,0.2011,0.1982,0.2056,0.202,0.2024,0.2059,0.2069,0.2078,0.2075,0.1963,0,0,0,0,0,0.1918,0.1948,0.1958,0.1989,0.1999,0.2005,0.2019,0.2023,0.2024,0.2027,0.2022,0.203,0.2046,0.2044,0.2058,0.2073,0.208,0.2108,0.2117,0.2124,0.2124,0.2204,0.222,0.2048,0.2048,0.2048,0,0,0.191,0.1951,0.1953,0.1995,0.2008,0.2018,0.2011,0.2038,0.2044,0.2022,0.2042,0.2059,0.2059,0.2096,0.2107,0.2083,0.2171,0.2131,0.2137,0.2132,0.2211,0.2228,0.2243,0.2052,0.2051,0.2051,0,0,0.1922,0.1967,0.1987,0.1994,0.2033,0.2051,0.2053,0.2067,0.2077,0.2093,0.2097,0.2127,0.2137,0.2155,0.2161,0.2222,0.2222,0.2245,0.2276,0.2356,0.237,0.2383,0.2383,0.2395,0.2242,0.2243,0.2243,0,0.1923,0.1948,0.199,0.201,0.2029,0.2058,0.2066,0.2081,0.2091,0.2113,0.2108,0.2168,0.2167,0.2208,0.2244,0.2241,0.2269,0.223,0.2367,0.238,0.2392,0.2389,0.2402,0.2246,0.2245,0.2245,0.2245,0,0.194,0.1947,0.1964,0.2005,0.2038,0.2051,0.2082,0.2122,0.2153,0.2165,0.2222,0.2233,0.2275,0.2289,0.2282,0.2375,0.2359,0.2374,0.2335,0.2413,0.2404,0.2417,0.2251,0.2249,0.2248,0.2248,0,0,0.1939,0.1968,0.1962,0.1969,0.2035,0.2057,0.2114,0.2166,0.2206,0.2236,0.2286,0.2325,0.2357,0.2367,0.2377,0.2429,0.253,0.2447,0.2449,0.2436,0.2669,0.2555,0.2556,0.2592,0.2595,0.2598,0.2616,0,0.1927,0.1959,0.1982,0.1989,0.2008,0.2065,0.211,0.2173,0.2237,0.2299,0.2335,0.239,0.2377,0.2423,0.2477,0.2531,0.2572,0.252,0.2603,0.2604,0.2487,0.2571,0.2353,0.2345,0.2628,0.263,0.2632,0,0.1923,0.1956,0.1967,0.1998,0.2012,0.204,0.2166,0.2199,0.2303,0.2348,0.2425,0.2469,0.2546,0.2539,0.2642,0.2622,0.2657,0.2674,0.2677,0.256,0.2515,0.2321,0.2357,0.2652,0.2651,0.2649,0.2648,0,0.1921,0.193,0.1954,0.1955,0.201,0.2056,0.2121,0.2234,0.2274,0.2407,0.2486,0.2554,0.264,0.2692,0.2747,0.2727,0.2851,0.2826,0.2731,0.272,0.254,0.2508,0.2911,0.2911,0.2911,0.2911,0.2911,0,0.1897,0.1888,0.1954,0.1946,0.2007,0.2064,0.2142,0.2219,0.2323,0.2382,0.2521,0.2591,0.2707,0.2791,0.2791,0.2797,0.2896,0.2742,0.2738,0.2548,0.2518,0.2793,0.278,0.2912,0.2912,0.2912,0.2911,0,0.1851,0.1868,0.188,0.1951,0.1991,0.2042,0.2147,0.2211,0.2327,0.2428,0.2486,0.2663,0.2767,0.2832,0.2921,0.2865,0.2864,0.2844,0.2571,0.2533,0.265,0.2639,0.271,0.2707,0.2704,0.2702,0.27,0,0.1836,0.184,0.1898,0.1938,0.1965,0.2052,0.2131,0.2214,0.2251,0.2441,0.2473,0.2662,0.2716,0.2793,0.2758,0.2719,0.2819,0.2497,0.2408,0.2651,0.264,0.2634,0.2627,0.2176,0.217,0.2165,0.2161,0,0.181,0.1817,0.1832,0.1935,0.2003,0.2053,0.214,0.2171,0.2266,0.233,0.242,0.249,0.2589,0.247,0.2475,0.2418,0.2474,0.2388,0.2776,0.2257,0.2149,0.2137,0.2149,0.2117,0.2121,0.2124,0.2127,0.2128,0.181,0.1793,0.1836,0.1935,0.2001,0.2062,0.2054,0.2108,0.2124,0.2158,0.2267,0.2261,0.2282,0.215,0.2072,0.2035,0.2194,0.2081,0.2097,0.2118,0.2049,0.1942,0.1853,0.1856,0.1859,0.1861,0.1863,0,0.1808,0.1817,0.1868,0.1901,0.1933,0.2014,0.2044,0.1977,0.1928,0.1979,0.1959,0.1791,0.1707,0.1744,0.16,0.1572,0.1564,0.151,0.1489,0.1535,0.1575,0.1479,0.1132,0.113,0.1127,0.1125,0,0,0.1775,0.1775,0.1772,0.1822,0.1874,0.1848,0.1838,0.1727,0.1672,0.1602,0.1529,0.1622,0.167,0.1383,0.1338,0.1212,0.1365,0.1157,0.1745,0.1767,0.1805,0.1906,0.1809,0,0,0,0,0]},{"header":{"parameterUnit":"m.s-1","parameterCategory":2,"la1":30.2991,"la2":30.254,"lo1":-89.0895,"lo2":-89.0444,"dy":0.0017,"dx":0.0017,"nx":28,"ny":28,"refTime":"2024-08-05T09:00:00:Z","depth":"2","parameterNumber":3,"parameterNumberName":"V-component_of_CURRENTS"},"data":[0,0,0,0,0,0,0,0,0,0,0,0,0,0,0,0,0,0,0,0,0,0,0,0,0,0,0,0,0,0,0,0,0,0,0,0,0,0,0,0,0,0,0,0,0,0,0,0,0,0,0,0,0,0,0,0,0,0,0.0129,0.0129,0,0.0151,0.0151,0.0151,0.0151,0.0151,0.0151,0.0151,0.0196,0.0198,0.0199,0,0,0,0,0,0,0,0,0,0,0,0,0,0.0105,0.0105,0.0129,0.0129,0.013,0.0151,0.0151,0.0151,0.0151,0.0151,0.0151,0.0151,0.0196,0.0197,0.0199,0,0,0,0,0,0,0,0,0,0,0,0,0,0.0119,0.0105,0.0129,0.0133,0.0134,0.0151,0.0151,0.0151,0.0151,0.0151,0.0151,0.0151,0.0195,0.0197,0.0199,0.0218,0,0,0.0206,0.0207,0,0,0,0,0,0,0,0,0.0118,0.012,0.0132,0.0133,0.0134,0.0149,0.016,0.0175,0.0152,0.0144,0.0151,0.0151,0.0184,0.0187,0.019,0.022,0.0222,0.0206,0.0207,0.0208,0.0209,0,0,0,0,0,0,0,0.0117,0.0119,0.0137,0.0132,0.0133,0.014,0.0142,0.0162,0.0165,0.0144,0.0145,0.0149,0.0184,0.0187,0.0191,0.0223,0.0206,0.0208,0.0209,0.021,0.0253,0.0253,0,0,0,0,0,0,0.0116,0.0118,0.0136,0.0137,0.0126,0.0141,0.0142,0.0144,0.0164,0.0167,0.0149,0.0149,0.0184,0.0188,0.0192,0.0219,0.0208,0.021,0.0211,0.0253,0.0253,0.0253,0,0,0,0,0,0,0.0115,0.0117,0.0135,0.0129,0.0132,0.0142,0.0143,0.0144,0.0146,0.0167,0.017,0.015,0.0184,0.0189,0.0208,0.0221,0.0211,0.0213,0.0253,0.0253,0.0253,0.027,0,0,0,0,0,0,0.0115,0.0117,0.011,0.0129,0.0132,0.015,0.0143,0.0145,0.015,0.015,0.0169,0.0173,0.0184,0.0205,0.0211,0.0223,0.0214,0.0253,0.0253,0.0253,0.027,0.0271,0.0272,0,0,0,0,0,0.0114,0.0117,0.0109,0.0111,0.0125,0.0151,0.0153,0.0158,0.015,0.0157,0.0164,0.0172,0.0207,0.0207,0.0213,0.0227,0.0253,0.0253,0.0253,0.027,0.0271,0.0272,0,0,0,0,0,0,0.0112,0.0117,0.011,0.0116,0.0131,0.0151,0.0159,0.0158,0.0168,0.0166,0.0178,0.0183,0.0202,0.0208,0.0208,0.0235,0.0229,0.023,0.024,0.0241,0.0242,0.0262,0.0216,0,0,0,0,0,0.0105,0.0101,0.0117,0.012,0.013,0.014,0.0148,0.0153,0.0167,0.017,0.0183,0.0193,0.0206,0.0218,0.0231,0.0253,0.0255,0.0261,0.0262,0.0263,0.0282,0.0295,0.0299,0.0252,0.0252,0.0252,0,0,0.0118,0.0108,0.0114,0.0118,0.013,0.0154,0.0145,0.0162,0.0183,0.0176,0.0203,0.0199,0.0211,0.0232,0.0241,0.024,0.0271,0.0263,0.0264,0.0282,0.0295,0.03,0.0304,0.0252,0.0252,0.0252,0,0,0.0138,0.0122,0.0132,0.0144,0.0153,0.0159,0.0164,0.0184,0.0194,0.0217,0.0211,0.0214,0.0241,0.0248,0.0256,0.027,0.0273,0.0268,0.0297,0.0309,0.0313,0.0317,0.0301,0.0303,0.0271,0.0271,0.0271,0,0.0142,0.0157,0.0143,0.0157,0.0173,0.0164,0.0196,0.0207,0.0228,0.0244,0.023,0.0257,0.0253,0.0285,0.028,0.0275,0.0274,0.0294,0.0312,0.0316,0.032,0.0302,0.0305,0.0272,0.0272,0.0272,0.0272,0,0.0181,0.0192,0.0204,0.0211,0.0222,0.025,0.0264,0.0275,0.0275,0.0288,0.0315,0.0305,0.0329,0.0312,0.0302,0.0326,0.0311,0.0309,0.0313,0.0326,0.0305,0.0308,0.0273,0.0273,0.0273,0.0272,0,0,0.0197,0.0226,0.0231,0.0256,0.0256,0.0284,0.0303,0.0336,0.0365,0.0367,0.0416,0.0401,0.0394,0.0401,0.0382,0.0376,0.0376,0.0355,0.0355,0.0345,0.0386,0.0353,0.0352,0.0382,0.0383,0.0384,0.0351,0,0.0234,0.0278,0.0279,0.0338,0.0368,0.0366,0.0392,0.0412,0.0419,0.0461,0.0453,0.0485,0.0432,0.0441,0.0431,0.0403,0.0388,0.0384,0.037,0.0369,0.0345,0.0357,0.0372,0.0343,0.0354,0.0354,0.0354,0,0.0275,0.0294,0.0353,0.0408,0.0425,0.0457,0.0497,0.0524,0.0556,0.0562,0.0579,0.058,0.0585,0.0536,0.0501,0.0504,0.045,0.041,0.0408,0.0381,0.0342,0.0336,0.0347,0.0359,0.0358,0.0358,0.0358,0,0.03,0.0358,0.0406,0.0424,0.0471,0.0507,0.0539,0.056,0.06,0.0635,0.0666,0.0667,0.0696,0.0633,0.0555,0.0534,0.0512,0.0475,0.0388,0.0383,0.0397,0.0393,0.0448,0.0448,0.0448,0.0448,0.0448,0,0.0343,0.0393,0.0432,0.0466,0.0537,0.0555,0.0644,0.0648,0.0695,0.0763,0.0735,0.0786,0.0726,0.0709,0.0603,0.0514,0.0553,0.0402,0.0384,0.0398,0.0394,0.0415,0.0412,0.0447,0.0447,0.0447,0.0447,0,0.0385,0.0403,0.0463,0.0522,0.0552,0.0605,0.0718,0.0784,0.0792,0.0879,0.0899,0.0905,0.0873,0.0782,0.0697,0.0593,0.0491,0.0444,0.045,0.0433,0.0333,0.0331,0.0338,0.0337,0.0336,0.0335,0.0335,0,0.0412,0.0448,0.0506,0.0546,0.0587,0.0688,0.0766,0.082,0.0904,0.0954,0.1016,0.1005,0.1008,0.0859,0.0697,0.0516,0.0492,0.04,0.0354,0.0346,0.0327,0.0327,0.0326,0.0364,0.0364,0.0364,0.0363,0,0.0484,0.0498,0.0549,0.0599,0.0684,0.0808,0.0937,0.1008,0.1086,0.1128,0.1186,0.1172,0.1047,0.0896,0.0661,0.0533,0.0426,0.0384,0.0411,0.0386,0.0367,0.0349,0.0349,0.036,0.0361,0.0361,0.0361,0.0361,0.0532,0.0584,0.0629,0.0673,0.0768,0.091,0.1021,0.1144,0.1249,0.1299,0.1308,0.1253,0.1097,0.0781,0.0592,0.0392,0.0398,0.0306,0.0309,0.0312,0.0317,0.0297,0.0277,0.0276,0.0276,0.0276,0.0276,0,0.0609,0.066,0.0712,0.0782,0.087,0.092,0.112,0.1209,0.1321,0.1347,0.136,0.1157,0.0983,0.0779,0.0485,0.0304,0.0293,0.0235,0.0271,0.0276,0.028,0.0285,0.0235,0.0234,0.0233,0.0232,0,0,0.0666,0.0742,0.0754,0.085,0.0905,0.1061,0.1172,0.1257,0.1319,0.1321,0.1273,0.124,0.1015,0.0786,0.0569,0.0401,0.0369,0.0357,0.0412,0.0487,0.0492,0.0346,0.0362,0,0,0,0,0]}],[{"header":{"parameterUnit":"m.s-1","parameterCategory":2,"la1":30.2991,"la2":30.254,"lo1":-89.0895,"lo2":-89.0444,"dy":0.0017,"dx":0.0017,"nx":28,"ny":28,"refTime":"2024-08-05T09:00:00:Z","depth":"4","parameterNumber":2,"parameterNumberName":"U-component_of_CURRENTS"},"data":[0,0,0,0,0,0,0,0,0,0,0,0,0,0,0,0,0,0,0,0,0,0,0,0,0,0,0,0,0,0,0,0,0,0,0,0,0,0,0,0,0,0,0,0,0,0,0,0,0,0,0,0,0,0,0,0,0,0,0.0943,0.0943,0,0.0999,0.0999,0.1,0.1054,0.1054,0.1055,0.1056,0.1149,0.1151,0.1153,0,0,0,0,0,0,0,0,0,0,0,0,0,0.0849,0.0851,0.0943,0.0943,0.0944,0.0999,0.0999,0.1,0.1054,0.1054,0.1055,0.1056,0.1148,0.1151,0.1153,0,0,0,0,0,0,0,0,0,0,0,0,0,0.0897,0.0851,0.0943,0.0976,0.098,0.0998,0.0999,0.1001,0.1053,0.1054,0.1055,0.1056,0.1148,0.115,0.1153,0.1153,0,0,0.1162,0.1163,0,0,0,0,0,0,0,0,0.0894,0.09,0.0971,0.0974,0.0978,0.1019,0.1001,0.1053,0.1053,0.1027,0.1056,0.1057,0.1108,0.1114,0.1123,0.1157,0.1161,0.1162,0.1164,0.1165,0.1166,0,0,0,0,0,0,0,0.0891,0.0898,0.0966,0.0971,0.0976,0.0977,0.0986,0.1011,0.1063,0.1029,0.1033,0.1037,0.111,0.112,0.1126,0.1163,0.1162,0.1165,0.1167,0.1168,0.1269,0.127,0,0,0,0,0,0,0.0883,0.0895,0.0964,0.0967,0.0936,0.0978,0.0988,0.1006,0.1062,0.1071,0.1036,0.1039,0.1115,0.1123,0.113,0.1193,0.1165,0.1168,0.117,0.1268,0.1269,0.127,0,0,0,0,0,0,0.0881,0.0889,0.0962,0.0931,0.094,0.0979,0.0999,0.1007,0.1041,0.1067,0.1077,0.1066,0.1116,0.1125,0.1176,0.1195,0.1169,0.1172,0.1267,0.1268,0.127,0.1282,0,0,0,0,0,0,0.0878,0.0888,0.0914,0.0931,0.0942,0.0989,0.0999,0.1007,0.104,0.1045,0.1095,0.1103,0.1117,0.1172,0.1179,0.1199,0.1174,0.1266,0.1267,0.1269,0.128,0.1284,0.1286,0,0,0,0,0,0.0875,0.0898,0.0915,0.0924,0.0971,0.0989,0.0996,0.1026,0.1041,0.1059,0.1096,0.1103,0.1188,0.1175,0.1183,0.1204,0.1265,0.1267,0.1269,0.1279,0.1283,0.1286,0,0,0,0,0,0,0.0864,0.0906,0.0925,0.0959,0.0981,0.0998,0.1024,0.1037,0.1079,0.1095,0.1117,0.1128,0.1178,0.119,0.1175,0.1238,0.1226,0.123,0.1231,0.1235,0.1238,0.1231,0.1177,0,0,0,0,0,0.0874,0.0904,0.0936,0.096,0.0982,0.1007,0.1024,0.1041,0.1071,0.1091,0.1124,0.116,0.1188,0.1212,0.124,0.1277,0.1292,0.1295,0.1298,0.13,0.1301,0.1362,0.137,0.1277,0.1277,0.1277,0,0,0.0864,0.0898,0.091,0.096,0.0986,0.1011,0.1021,0.1053,0.1069,0.1094,0.1146,0.1175,0.1201,0.1242,0.1265,0.1259,0.133,0.1303,0.1305,0.1304,0.1365,0.1374,0.1382,0.1279,0.1278,0.1278,0,0,0.0861,0.0908,0.0936,0.0962,0.1009,0.1026,0.1039,0.1077,0.1102,0.1146,0.1165,0.121,0.1258,0.1279,0.1293,0.133,0.1344,0.134,0.1352,0.1412,0.142,0.1427,0.1435,0.1443,0.1342,0.1342,0.1342,0,0.0861,0.0893,0.0942,0.0976,0.0994,0.1035,0.1055,0.1083,0.1128,0.1148,0.1169,0.1244,0.1274,0.1307,0.1325,0.1337,0.1359,0.1335,0.1416,0.1424,0.1431,0.1438,0.1447,0.1343,0.1343,0.1343,0.1343,0,0.0866,0.0903,0.0922,0.0981,0.1011,0.1031,0.1075,0.1118,0.1156,0.1174,0.1231,0.1274,0.1318,0.1333,0.1345,0.1403,0.1395,0.1412,0.1405,0.1441,0.1446,0.1454,0.1344,0.1344,0.1344,0.1344,0,0,0.0842,0.0913,0.0922,0.0943,0.1013,0.1029,0.1084,0.1128,0.1168,0.1214,0.1257,0.1307,0.1334,0.1352,0.1373,0.1424,0.1493,0.1445,0.1448,0.1448,0.1596,0.1486,0.1485,0.1535,0.1537,0.1539,0.1569,0,0.0836,0.0879,0.0921,0.0951,0.0979,0.1038,0.1084,0.1133,0.119,0.1248,0.1284,0.134,0.1336,0.138,0.1422,0.1497,0.1521,0.1481,0.1565,0.1566,0.1462,0.1494,0.1546,0.1576,0.1578,0.1579,0.158,0,0.0834,0.0863,0.0896,0.0947,0.0968,0.0995,0.1083,0.1132,0.1222,0.1276,0.1329,0.1362,0.1432,0.1437,0.154,0.1521,0.1551,0.159,0.1593,0.1493,0.1473,0.1539,0.1597,0.1595,0.1594,0.1593,0.1592,0,0.0784,0.0842,0.0862,0.0879,0.0956,0.0988,0.1038,0.1137,0.1194,0.1306,0.1366,0.1425,0.1495,0.1548,0.1614,0.16,0.1723,0.1715,0.1618,0.1609,0.1694,0.1686,0.1766,0.1766,0.1766,0.1766,0.1766,0,0.0752,0.0764,0.0843,0.0847,0.0893,0.0963,0.1027,0.1112,0.1221,0.1289,0.1375,0.1433,0.154,0.1605,0.1637,0.1653,0.1739,0.1617,0.1619,0.1693,0.1685,0.1698,0.169,0.1767,0.1767,0.1767,0.1767,0,0.0683,0.0737,0.0766,0.084,0.0874,0.0912,0.1017,0.1067,0.1199,0.1301,0.1343,0.1473,0.1574,0.1633,0.1743,0.1684,0.1718,0.169,0.1744,0.1749,0.1546,0.1538,0.1577,0.1573,0.157,0.1568,0.1566,0,0.0641,0.0658,0.0748,0.079,0.0822,0.0888,0.0944,0.1059,0.112,0.1306,0.1346,0.1476,0.1545,0.1593,0.1672,0.1697,0.1675,0.165,0.1599,0.1533,0.1532,0.1528,0.1524,0.1561,0.156,0.156,0.1559,0,0.0564,0.0615,0.0644,0.0743,0.0801,0.0835,0.0914,0.0947,0.1097,0.1216,0.132,0.1369,0.1468,0.1532,0.1566,0.1579,0.1653,0.1619,0.1624,0.1576,0.1515,0.1515,0.1515,0.1549,0.155,0.1551,0.1552,0,0.052,0.0531,0.0611,0.0688,0.0764,0.0781,0.081,0.0882,0.0955,0.1161,0.1188,0.1337,0.1459,0.1471,0.1507,0.1513,0.1479,0.1407,0.1423,0.1434,0.1375,0.1276,0.1239,0,0,0,0,0,0.0481,0.0497,0.0557,0.0637,0.0707,0.0746,0.081,0.0844,0.0979,0.1023,0.1105,0.1193,0.1264,0.1334,0.1313,0.1424,0.147,0.1387,0.1391,0.1493,0.1505,0.1448,0,0,0,0,0,0,0.0459,0.0501,0.0531,0.0587,0.0636,0.0682,0.0711,0.0781,0.0808,0.096,0.1011,0.1119,0.121,0.1289,0.1301,0.1318,0.1288,0.1475,0.1471,0.1486,0.1497,0.1506,0.1453,0,0,0,0,0]},{"header":{"parameterUnit":"m.s-1","parameterCategory":2,"la1":30.2991,"la2":30.254,"lo1":-89.0895,"lo2":-89.0444,"dy":0.0017,"dx":0.0017,"nx":28,"ny":28,"refTime":"2024-08-05T09:00:00:Z","depth":"4","parameterNumber":3,"parameterNumberName":"V-component_of_CURRENTS"},"data":[0,0,0,0,0,0,0,0,0,0,0,0,0,0,0,0,0,0,0,0,0,0,0,0,0,0,0,0,0,0,0,0,0,0,0,0,0,0,0,0,0,0,0,0,0,0,0,0,0,0,0,0,0,0,0,0,0,0,0.0151,0.0151,0,0.0154,0.0154,0.0154,0.0158,0.0158,0.0158,0.0158,0.0192,0.0193,0.0194,0,0,0,0,0,0,0,0,0,0,0,0,0,0.0147,0.0147,0.0151,0.0151,0.0151,0.0154,0.0154,0.0154,0.0158,0.0158,0.0158,0.0158,0.0191,0.0192,0.0194,0,0,0,0,0,0,0,0,0,0,0,0,0,0.015,0.0147,0.0151,0.0153,0.0153,0.0154,0.0154,0.0154,0.0158,0.0158,0.0158,0.0158,0.0191,0.0192,0.0194,0.0203,0,0,0.0198,0.0199,0,0,0,0,0,0,0,0,0.015,0.015,0.0152,0.0152,0.0153,0.0155,0.0165,0.0172,0.0158,0.0156,0.0158,0.0158,0.0182,0.0184,0.0185,0.0204,0.0206,0.0198,0.0199,0.02,0.02,0,0,0,0,0,0,0,0.015,0.015,0.0153,0.0152,0.0152,0.0153,0.0153,0.0166,0.017,0.0157,0.0157,0.0156,0.0182,0.0184,0.0186,0.0206,0.0198,0.0199,0.02,0.0201,0.022,0.022,0,0,0,0,0,0,0.0148,0.015,0.0153,0.0153,0.015,0.0153,0.0153,0.0155,0.017,0.0171,0.0156,0.0156,0.0181,0.0184,0.0187,0.0202,0.0199,0.0201,0.0202,0.022,0.022,0.0219,0,0,0,0,0,0,0.0148,0.0148,0.0153,0.0151,0.0151,0.0153,0.0154,0.0155,0.0156,0.0169,0.0171,0.0157,0.0181,0.0185,0.0197,0.0203,0.0201,0.0203,0.0221,0.022,0.022,0.0229,0,0,0,0,0,0,0.0148,0.0148,0.0147,0.0151,0.0151,0.0158,0.0154,0.0155,0.0156,0.0156,0.017,0.0173,0.0182,0.0194,0.0198,0.0205,0.0204,0.0221,0.022,0.022,0.0229,0.0229,0.0229,0,0,0,0,0,0.0148,0.0155,0.0147,0.0147,0.015,0.0159,0.0159,0.016,0.0156,0.0161,0.0164,0.0173,0.0193,0.0196,0.02,0.0207,0.0221,0.0221,0.022,0.023,0.0229,0.0229,0,0,0,0,0,0,0.0158,0.0156,0.0147,0.0154,0.0154,0.0159,0.0164,0.016,0.0166,0.0167,0.0174,0.0178,0.0187,0.0193,0.0195,0.0208,0.0207,0.0207,0.0213,0.0213,0.0212,0.0229,0.0205,0,0,0,0,0,0.0157,0.0158,0.0156,0.0161,0.0161,0.0159,0.0161,0.0162,0.0168,0.017,0.0177,0.0182,0.0187,0.0196,0.0202,0.0215,0.0207,0.022,0.022,0.022,0.0234,0.0221,0.0221,0.0217,0.0217,0.0217,0,0,0.0167,0.016,0.0165,0.0162,0.0162,0.0174,0.0162,0.0169,0.0182,0.0174,0.0191,0.0183,0.0189,0.02,0.0205,0.0207,0.0211,0.0219,0.0219,0.0233,0.022,0.0221,0.0221,0.0217,0.0217,0.0217,0,0,0.0187,0.0177,0.0185,0.0185,0.0182,0.0184,0.0186,0.0188,0.0192,0.0204,0.0195,0.019,0.0207,0.0206,0.021,0.0213,0.0207,0.021,0.0231,0.0218,0.0219,0.0219,0.0189,0.0186,0.0215,0.0215,0.0215,0,0.019,0.0204,0.019,0.0196,0.0205,0.019,0.021,0.0212,0.0217,0.0222,0.0215,0.0216,0.0214,0.0224,0.022,0.0215,0.02,0.0234,0.0219,0.0219,0.022,0.0189,0.0186,0.0215,0.0215,0.0215,0.0215,0,0.022,0.0228,0.0235,0.0237,0.0243,0.0259,0.0259,0.0264,0.0263,0.026,0.0265,0.0251,0.0255,0.0242,0.0237,0.0235,0.0219,0.0217,0.0223,0.0221,0.0187,0.0185,0.0216,0.0215,0.0215,0.0215,0,0,0.0236,0.0253,0.0256,0.027,0.0269,0.0285,0.03,0.0315,0.0328,0.0316,0.0331,0.0317,0.0297,0.0299,0.0277,0.0261,0.0235,0.0243,0.0242,0.0218,0.0192,0.0185,0.0181,0.023,0.023,0.023,0.016,0,0.0262,0.0293,0.0295,0.0334,0.0352,0.0349,0.037,0.0376,0.0372,0.0376,0.0351,0.0353,0.0323,0.032,0.0298,0.0259,0.0231,0.0253,0.0193,0.0192,0.019,0.0179,0.0231,0.0158,0.0157,0.0157,0.0157,0,0.0288,0.0307,0.0351,0.0389,0.0399,0.0426,0.0456,0.0471,0.0463,0.0456,0.044,0.0413,0.0389,0.0359,0.0296,0.0312,0.0256,0.0215,0.0211,0.0206,0.018,0.0164,0.0151,0.0152,0.0152,0.0153,0.0153,0,0.0311,0.0349,0.0391,0.0401,0.0436,0.0468,0.0497,0.0501,0.0519,0.0505,0.0502,0.0466,0.0451,0.0389,0.0302,0.0302,0.022,0.021,0.0144,0.0141,0.0165,0.0166,0.0157,0.0157,0.0158,0.0158,0.0158,0,0.0338,0.0374,0.0412,0.0437,0.0497,0.051,0.0567,0.0576,0.0587,0.0604,0.055,0.0542,0.0458,0.0397,0.0316,0.0224,0.0231,0.0149,0.0129,0.0166,0.0168,0.0162,0.0163,0.0155,0.0156,0.0156,0.0157,0,0.0358,0.038,0.0427,0.0482,0.0508,0.0553,0.0626,0.0656,0.0656,0.0673,0.0671,0.0605,0.0529,0.0428,0.0318,0.0246,0.0156,0.0113,0.015,0.0132,0.0078,0.0081,0.0044,0.0043,0.0042,0.0042,0.0042,0,0.0373,0.0396,0.0461,0.0494,0.053,0.0601,0.0649,0.0688,0.0715,0.0708,0.0714,0.0645,0.0588,0.0423,0.0317,0.0162,0.0134,0.0074,0.0087,0.0085,0.0069,0.0073,0.0076,0.0041,0.004,0.004,0.004,0,0.0397,0.0415,0.0459,0.0524,0.0586,0.0645,0.0722,0.0749,0.078,0.0783,0.0745,0.0654,0.0559,0.0428,0.0302,0.0191,0.0115,0.0068,0.0068,0.0079,0.0081,0.0066,0.007,0.0038,0.0038,0.0039,0.0039,0,0.0413,0.0442,0.0492,0.0551,0.0617,0.0669,0.0714,0.0756,0.0786,0.0788,0.0775,0.0667,0.0612,0.0442,0.033,0.0221,0.0193,0.0147,0.0142,0.0143,0.0195,0.0213,0.0197,0,0,0,0,0,0.0426,0.0461,0.0516,0.0575,0.0635,0.0675,0.0747,0.078,0.0821,0.0801,0.0792,0.0703,0.0534,0.0458,0.035,0.0313,0.0169,0.018,0.0113,0.0027,0.0029,0.0072,0,0,0,0,0,0,0.0435,0.049,0.0515,0.0577,0.0619,0.0687,0.0734,0.0761,0.0755,0.0775,0.069,0.0661,0.0502,0.0596,0.0341,0.0309,0.0247,0.011,0.0107,0.0025,0.0027,0.0029,0.0075,0,0,0,0,0]}]]